GFSNW_sfc_30mbdewp_000.txt.gz
Dewpoint
50 50 49 49 50 48 49 45 36 48 51 37 34 31 31 33 33 35 34 34 32 31 32 31 31 31 31 36 35 30 33 31 20 22 31 33 31 28 27 20 20 26 26 22
50 49 49 49 49 49 46 41 40 46 47 36 38 34 33 34 33 33 33 33 34 34 33 31 32 33 37 37 34 32 33 29 17 20 29 30 30 29 30 30 30 26 25 22
50 49 49 48 49 49 45 40 40 40 39 38 33 32 33 32 34 34 34 34 34 34 33 34 34 34 36 38 37 35 35 30 23 11 16 23 21 23 26 27 27 25 25 24
49 49 49 48 49 48 46 42 41 40 38 36 34 34 33 31 31 34 34 32 32 33 32 32 33 34 34 35 37 38 36 27 29 27 26 25 26 26 25 25 27 26 26 24
49 49 49 48 50 46 44 41 40 39 37 37 34 35 32 30 32 31 31 30 32 29 27 25 27 28 29 26 36 34 36 30 32 28 28 26 26 26 26 27 28 28 28 27
50 50 49 48 50 48 44 45 42 40 35 35 36 34 33 31 33 35 34 33 32 31 31 33 37 38 37 35 33 34 35 35 32 27 29 29 25 27 25 25 28 27 25 26
50 50 50 48 50 49 47 45 41 41 35 36 34 33 34 33 33 33 35 35 32 36 40 39 37 35 36 38 38 38 36 36 34 31 30 22 26 27 27 27 27 26 27 30
51 51 51 49 49 50 48 45 41 40 32 37 34 34 35 35 36 36 35 39 40 41 39 36 29 29 26 32 35 36 37 37 31 29 25 24 25 27 27 26 25 29 32 34
51 51 51 49 48 50 51 48 44 41 34 36 34 35 35 36 37 38 41 42 42 41 40 35 22 24 27 24 29 35 35 36 34 30 26 23 26 27 30 31 25 35 38 39
50 51 51 50 48 50 52 50 49 41 37 38 37 36 35 37 37 37 40 41 40 42 38 32 32 30 31 25 24 26 32 32 30 29 28 28 29 31 32 29 32 38 39 38
50 50 50 51 49 48 51 51 50 46 40 40 41 39 38 37 37 37 40 39 41 40 35 35 35 34 33 30 29 28 26 29 29 30 28 26 31 31 33 36 38 39 39 38
50 50 50 51 49 49 50 49 49 49 45 43 49 48 44 43 39 39 42 39 39 41 39 38 36 32 33 35 28 31 28 29 27 30 30 32 34 35 37 39 39 39 39 37
51 50 50 50 50 48 50 50 49 47 44 45 46 45 47 49 45 45 41 42 41 40 42 41 39 32 37 31 33 33 32 34 33 33 33 34 37 38 40 41 40 39 38 34
51 51 50 50 50 48 49 50 48 47 43 36 43 43 44 46 49 48 46 43 44 43 43 38 35 34 37 36 34 34 33 34 33 34 37 37 36 40 41 40 40 39 34 30
50 50 50 50 50 49 52 53 51 50 47 40 43 44 44 45 48 47 46 45 44 44 39 37 37 41 39 39 38 36 35 32 35 35 38 38 38 39 39 40 38 32 27 23
49 50 50 50 50 50 52 48 51 52 51 43 39 44 43 43 45 47 46 46 47 46 43 40 42 42 39 35 34 37 37 38 40 38 39 39 39 39 38 34 28 26 23 22
49 50 50 50 50 53 49 46 48 49 51 43 40 41 41 41 43 43 44 46 46 45 44 41 42 42 40 37 33 36 38 37 38 39 38 37 35 34 32 29 25 25 26 25
49 50 50 50 49 49 49 51 49 50 47 44 38 37 39 41 40 39 40 40 43 44 43 40 40 40 41 35 36 35 33 35 36 36 37 36 33 31 28 26 26 25 22 20
49 48 49 49 48 47 47 48 49 49 46 40 38 34 32 41 38 38 38 40 37 40 37 37 39 36 35 37 35 33 34 36 35 33 32 30 28 26 25 24 20 19 20 21
48 48 46 42 43 47 48 46 45 44 42 41 39 41 37 40 36 35 37 36 36 33 34 35 33 33 33 30 34 34 35 34 33 31 29 28 25 19 18 20 21 22 21 24
44 39 38 42 46 43 40 39 38 36 35 36 36 36 36 38 36 35 35 33 33 30 31 32 31 30 33 32 35 34 33 32 30 26 23 20 20 19 21 23 23 26 27 27
43 42 43 42 39 36 34 33 32 32 32 33 34 35 36 36 39 35 31 31 30 27 30 29 26 28 29 30 30 30 30 25 20 20 19 20 22 25 26 25 25 27 29 29
43 38 34 33 32 30 30 28 29 30 33 34 34 33 34 34 35 31 31 28 28 28 26 25 26 28 29 29 29 30 26 24 24 20 21 24 26 26 27 26 28 29 29 29
35 33 30 31 29 30 31 32 33 33 34 34 34 31 32 31 30 29 28 26 26 24 22 23 25 24 21 23 26 22 19 19 21 23 25 27 27 27 28 27 28 28 28 28
32 32 28 29 30 32 32 33 33 33 35 34 32 31 31 28 26 27 25 23 21 22 21 23 25 21 22 24 22 21 21 22 23 24 26 27 27 27 28 29 30 30 29 28
29 28 28 29 30 30 32 33 32 34 33 33 32 29 28 26 26 24 23 20 17 20 26 27 24 24 25 26 25 22 22 23 24 24 26 27 28 28 28 29 29 29 29 28
26 28 30 29 30 31 32 34 33 35 32 29 27 26 25 24 23 22 21 19 22 25 24 23 24 25 26 25 25 25 26 25 25 26 27 28 29 30 29 29 27 29 30 30

GFSNW_sfc_30mbdewp_003.txt.gz
Dewpoint
50 49 49 49 49 50 49 41 33 49 52 34 40 33 30 31 31 34 32 31 29 28 29 29 29 28 31 33 32 28 30 26 21 19 29 31 29 26 24 20 18 22 24 22
49 49 48 49 49 48 46 35 39 48 50 40 41 35 33 32 31 31 31 32 32 32 31 30 30 31 36 36 33 32 31 28 20 19 28 29 26 26 24 27 27 24 23 23
49 49 48 49 49 47 49 38 38 39 42 38 32 32 30 32 34 33 33 33 33 32 30 32 32 33 36 37 35 35 35 27 22 17 16 19 19 19 20 22 24 24 24 23
49 49 48 48 49 46 48 40 40 40 37 37 33 32 31 30 30 32 32 32 31 31 31 30 30 31 34 34 36 35 33 27 27 25 22 20 20 21 21 19 21 23 25 23
49 49 48 47 49 46 44 36 38 38 39 36 34 34 31 28 30 30 29 29 30 29 30 23 25 25 24 25 33 31 33 30 31 26 23 21 21 20 20 21 23 23 23 23
49 50 49 47 49 49 41 43 43 40 36 36 35 33 31 29 32 35 30 30 27 28 29 33 35 36 34 32 32 33 34 33 29 27 29 28 26 28 22 22 23 26 24 25
50 50 50 47 49 50 46 44 41 44 38 37 34 32 32 31 31 31 31 30 33 38 38 37 36 36 35 36 36 36 38 34 36 31 30 25 27 25 24 24 25 24 24 27
50 50 50 47 48 49 47 43 42 42 39 36 34 33 32 34 34 33 35 39 39 39 37 36 32 30 29 33 33 34 36 37 32 30 25 24 25 26 25 26 26 26 31 34
50 50 51 49 47 50 49 47 48 43 36 40 34 34 35 35 37 38 40 42 43 42 41 37 24 26 25 26 30 34 36 39 34 31 27 23 28 28 30 30 25 36 36 36
50 50 50 50 47 48 52 50 52 43 44 38 36 37 36 36 35 35 40 41 42 42 41 34 34 29 29 24 26 31 33 34 32 30 28 27 28 30 32 27 31 38 38 39
49 50 50 50 48 48 51 51 51 49 44 41 41 40 39 39 35 40 40 39 42 43 37 38 37 37 32 30 26 29 29 32 30 32 29 26 30 31 34 34 36 39 39 39
49 49 49 50 49 48 49 48 48 50 45 44 48 47 46 45 40 38 42 37 40 40 40 41 41 35 37 36 28 28 26 29 29 31 28 29 34 39 39 38 38 39 40 39
50 50 49 50 50 48 50 50 50 48 50 45 44 42 47 45 45 46 41 44 40 41 43 43 41 34 38 32 33 31 30 29 31 33 31 31 35 38 39 41 40 40 40 38
50 51 50 50 50 48 50 50 50 48 46 40 45 45 46 47 48 46 46 42 46 44 44 41 37 35 37 38 33 30 32 32 32 33 32 33 35 40 40 39 40 40 37 32
50 50 50 50 50 49 53 52 51 52 48 42 46 45 45 46 48 46 45 44 44 45 42 38 37 42 40 40 39 35 33 31 33 33 36 38 39 41 39 38 37 37 30 27
49 50 50 50 51 50 52 46 52 52 53 46 41 46 44 45 46 47 45 44 44 43 43 41 41 40 39 37 35 33 33 34 35 37 40 41 40 38 38 35 32 29 26 26
49 50 50 50 51 53 49 46 50 50 53 46 41 44 43 43 45 46 45 47 45 45 44 44 43 41 40 40 34 32 33 36 37 39 39 38 39 36 34 32 29 27 26 22
49 50 50 50 50 50 50 52 50 51 49 48 41 40 42 43 43 43 43 44 45 44 42 43 41 40 41 37 35 34 35 35 36 37 40 38 34 32 29 27 24 21 17 16
49 49 49 50 50 48 51 48 51 52 49 43 39 37 35 42 41 41 41 42 38 42 40 40 41 38 35 36 35 36 35 36 37 34 32 31 28 25 23 19 16 16 16 16
48 48 46 43 44 48 49 49 48 46 46 45 39 42 38 39 38 37 37 39 37 34 36 36 34 34 38 37 36 35 35 35 34 31 30 29 26 19 17 17 18 18 18 23
45 41 40 43 47 44 43 41 40 39 37 38 41 41 37 41 36 35 36 35 35 32 33 33 32 31 34 35 35 34 33 32 31 29 25 19 17 17 17 19 21 24 24 25
43 43 44 43 40 37 37 35 34 34 35 35 34 36 39 37 40 35 32 32 31 29 33 31 28 30 33 33 35 33 31 29 23 19 17 17 17 19 23 25 24 24 27 30
41 36 34 33 32 30 30 28 30 31 33 34 34 33 34 35 36 32 32 29 29 32 28 26 27 29 30 32 31 30 26 23 21 17 16 18 19 23 28 27 29 30 29 29
33 32 30 30 29 30 31 32 32 34 35 35 34 32 32 32 32 31 30 29 30 26 25 26 27 28 28 29 30 28 24 22 21 20 20 23 28 29 31 30 30 29 29 29
33 33 28 29 31 32 32 33 33 34 36 36 35 34 35 31 29 30 28 25 24 25 24 26 26 26 24 26 24 22 24 25 23 20 21 26 28 30 30 31 32 32 33 32
31 32 30 31 31 31 32 32 32 35 35 36 35 31 30 29 30 26 26 26 22 25 28 30 26 24 24 24 23 25 24 23 21 20 22 24 29 30 30 31 32 31 32 31
30 29 33 32 33 32 32 34 34 37 35 31 32 28 28 28 27 26 25 24 27 30 29 25 24 24 24 26 27 28 27 26 24 24 25 27 30 31 32 30 29 29 30 31

GFSNW_sfc_30mbdewp_006.txt.gz
Dewpoint
50 49 48 49 49 49 49 44 34 51 54 32 34 36 30 29 30 32 31 28 25 26 26 26 27 27 32 32 30 28 26 25 24 20 26 27 26 24 22 23 20 23 24 20
49 49 48 49 49 48 49 38 43 50 49 36 42 35 31 29 28 28 29 30 31 31 29 29 29 34 35 35 34 34 31 28 24 23 29 27 23 24 23 29 29 24 22 24
49 49 48 48 49 48 48 41 36 37 40 43 37 34 32 32 33 33 32 32 31 31 31 31 30 34 36 35 35 33 35 26 22 21 18 19 18 18 19 19 26 25 25 23
49 49 49 48 49 48 48 42 37 33 33 37 34 32 30 31 31 32 32 30 29 30 29 29 30 32 33 32 32 34 31 27 28 25 22 20 19 19 19 19 20 20 23 21
49 50 49 48 49 48 47 42 38 40 37 35 33 33 30 29 28 31 28 29 30 30 32 27 27 26 26 28 33 31 32 33 32 26 22 22 21 21 20 19 19 21 23 23
50 50 49 48 49 51 42 43 45 40 38 35 34 35 31 29 32 34 29 30 30 32 33 35 35 35 33 30 32 33 35 33 32 27 29 30 28 28 22 22 22 23 23 26
50 50 49 47 49 50 54 48 41 45 39 37 34 34 31 30 33 30 30 30 34 36 36 37 37 37 36 35 35 36 36 35 36 28 31 23 26 25 25 24 23 24 24 29
50 50 50 47 48 50 49 45 47 45 40 40 34 33 31 33 33 32 37 37 37 36 36 37 29 30 27 31 32 33 36 37 30 30 26 25 25 27 27 27 27 27 31 35
50 50 50 49 47 49 51 51 53 48 40 40 34 32 35 35 36 39 40 42 41 39 41 36 25 28 25 29 30 34 37 39 35 31 26 22 26 29 31 30 27 36 37 37
50 50 50 50 47 48 53 53 54 52 46 39 39 35 37 37 39 39 40 42 42 41 40 35 32 30 28 27 27 32 32 34 32 31 27 29 28 30 32 26 32 38 39 38
49 50 50 50 48 48 51 53 52 53 46 42 42 41 37 37 38 41 40 40 41 44 36 36 37 37 33 31 27 32 30 31 30 31 27 25 31 30 30 36 39 39 38 38
49 49 49 50 50 48 50 50 50 53 49 46 49 48 48 46 44 40 42 38 42 44 41 41 42 35 39 35 29 25 26 32 32 33 32 33 33 35 38 41 40 39 39 38
50 50 49 50 50 48 50 52 52 50 53 46 45 43 46 47 48 49 43 45 39 40 44 44 41 32 40 30 34 29 28 27 32 32 32 31 33 34 41 41 39 38 38 38
51 51 50 50 50 49 51 51 52 50 49 39 46 47 45 48 47 45 47 44 46 47 46 41 38 32 39 39 35 33 33 31 30 32 32 33 35 40 40 40 38 39 38 36
50 50 50 50 51 50 53 52 52 52 50 41 47 45 46 46 47 45 46 47 46 47 43 38 36 43 39 42 41 39 35 29 32 34 36 38 39 40 39 39 38 36 34 28
49 49 50 50 51 51 54 46 52 52 53 47 40 47 45 45 46 46 44 45 44 45 45 42 43 42 40 38 36 35 32 30 33 33 39 41 41 39 38 36 31 29 28 26
48 49 49 49 51 53 50 47 50 50 54 46 41 44 44 44 45 46 45 46 45 45 44 44 44 42 41 39 36 34 31 32 33 38 39 38 38 37 37 32 29 27 25 20
49 49 50 50 50 50 50 52 51 51 50 49 41 41 43 44 45 45 44 46 46 46 43 44 42 41 41 37 38 36 34 34 36 37 39 38 36 36 30 27 24 19 16 16
49 49 50 52 51 49 51 49 52 53 50 44 40 37 35 43 41 42 42 43 39 43 41 41 41 40 36 37 35 33 33 35 35 37 35 32 29 27 24 20 17 16 17 18
48 49 47 44 46 49 49 49 47 48 48 47 39 42 39 41 40 39 38 39 38 35 37 39 36 35 37 35 36 37 36 36 37 35 31 29 27 23 18 17 18 20 23 24
45 42 41 43 46 47 46 42 41 41 39 41 41 42 38 42 36 36 39 35 36 31 34 34 33 32 35 37 37 36 36 35 34 32 30 24 20 18 18 21 26 26 26 26
43 43 43 43 40 38 38 37 37 37 36 37 37 39 41 40 41 37 34 34 33 30 35 31 30 31 34 36 35 34 33 32 27 23 19 18 18 20 25 26 27 27 28 28
40 37 35 35 32 30 30 29 30 32 33 34 35 33 35 36 37 33 32 30 29 34 31 28 30 33 32 34 34 32 28 24 22 18 18 20 20 23 25 26 28 29 30 30
34 32 30 30 29 30 29 30 31 33 35 34 34 32 33 33 33 32 29 31 31 27 26 27 33 29 31 32 32 28 24 19 21 22 23 23 25 26 29 30 30 30 29 30
33 33 28 29 31 31 32 32 32 34 36 35 33 33 34 31 29 31 29 26 26 28 28 31 31 31 30 29 28 25 23 23 25 24 22 22 24 27 28 31 32 32 32 32
33 33 30 32 31 31 32 32 32 35 34 36 35 31 30 29 30 27 27 27 25 30 32 30 27 27 28 25 25 25 26 25 25 25 24 24 25 27 29 31 32 32 31 31
31 30 34 33 33 32 33 34 34 37 34 31 32 29 26 30 28 27 30 28 31 34 31 28 27 26 27 26 27 28 28 28 27 26 26 26 28 30 31 30 31 31 31 33

GFSNW_sfc_30mbdewp_009.txt.gz
Dewpoint
49 49 49 50 50 50 48 49 38 54 57 29 39 36 36 28 29 32 31 31 26 26 26 28 30 32 32 34 35 27 27 26 22 24 26 26 25 25 25 20 23 25 24 20
48 49 49 50 49 49 51 43 47 53 55 28 33 37 31 29 29 30 29 31 32 31 31 29 34 35 36 37 35 33 30 25 23 26 29 28 22 23 28 30 27 19 16 21
49 49 49 49 49 46 49 48 35 45 47 45 42 37 31 31 34 33 33 32 31 32 31 32 34 35 36 35 31 32 36 26 24 21 21 20 18 19 22 28 27 24 24 23
48 49 48 49 49 45 46 47 39 36 30 32 39 37 33 32 32 33 33 31 31 31 29 32 34 35 34 35 30 33 32 30 28 26 24 22 21 20 21 20 21 22 21 26
49 50 48 49 49 46 46 46 43 37 33 32 37 37 32 33 32 32 31 29 31 33 32 33 32 32 32 33 32 33 36 33 28 25 28 25 23 24 24 22 21 22 24 26
50 50 47 48 49 51 48 47 47 46 42 33 36 35 32 32 33 33 34 33 35 34 35 38 38 36 35 36 33 35 36 32 28 25 29 31 26 27 25 24 25 23 22 28
50 50 48 47 49 51 55 51 50 41 34 40 36 36 34 34 32 31 37 37 35 38 37 35 35 33 35 35 35 37 33 35 32 22 28 13 29 27 26 26 27 28 33 35
50 50 49 47 48 50 52 52 52 42 34 42 37 34 35 35 40 39 38 37 37 38 39 28 22 24 25 31 33 35 37 34 25 21 25 24 26 27 28 27 27 36 36 36
50 50 50 48 48 49 53 52 55 48 38 38 41 34 34 38 39 40 41 43 44 44 39 29 25 24 26 28 30 36 39 35 31 28 17 9 27 30 32 31 27 38 38 37
50 50 50 49 48 48 54 51 55 53 41 42 43 37 36 41 41 40 42 42 41 44 33 32 26 30 31 28 29 30 33 33 28 29 25 27 32 31 32 25 26 39 39 38
50 49 50 50 49 48 54 51 53 53 44 43 46 47 40 40 42 38 41 39 40 41 32 29 32 34 30 30 31 29 24 26 28 30 26 21 31 31 27 33 40 40 38 38
49 49 49 50 50 49 52 51 52 54 49 47 50 48 46 45 45 43 42 32 43 42 37 39 40 33 37 33 26 33 27 29 29 30 27 30 33 32 36 40 40 39 39 38
50 50 50 50 50 49 52 52 52 54 49 45 45 44 48 48 47 49 40 44 44 44 46 41 39 28 38 30 32 30 30 34 32 33 34 33 35 40 41 41 40 39 38 37
50 51 50 50 51 50 52 53 53 51 47 37 45 46 47 47 48 47 48 46 49 48 43 39 38 29 39 33 29 31 30 33 31 32 34 35 40 41 40 39 39 39 39 38
49 49 49 49 51 51 53 54 53 53 48 36 46 46 46 47 48 47 48 46 46 46 41 36 33 37 39 41 39 36 35 32 31 29 36 37 40 40 40 39 39 40 38 28
49 49 49 49 50 51 54 50 53 51 55 42 35 47 45 46 46 46 46 47 47 46 40 38 42 44 35 37 36 37 38 37 35 34 41 41 40 39 38 37 33 29 27 26
48 49 49 50 50 52 49 47 50 50 53 41 40 43 44 44 46 47 47 48 47 45 43 42 41 41 41 37 35 37 36 33 37 41 40 39 38 37 38 31 29 28 25 19
48 48 50 51 50 50 51 52 50 51 50 46 38 40 41 44 44 43 45 44 45 45 44 44 41 41 39 36 38 38 38 37 39 39 39 38 39 37 31 29 22 17 19 20
49 50 51 52 50 48 51 49 51 54 49 41 40 35 32 44 41 42 40 43 40 43 41 41 41 39 36 37 38 38 37 35 37 38 38 37 36 27 22 19 19 20 22 22
49 49 48 44 46 47 49 48 46 45 48 43 40 41 39 41 39 39 38 38 37 36 37 40 36 36 38 38 37 37 37 38 37 36 34 30 25 20 19 21 23 24 24 24
45 43 42 43 46 48 45 40 40 40 38 42 41 41 39 41 37 37 38 35 36 31 32 34 31 31 34 36 38 37 37 36 34 30 29 25 20 20 22 24 25 25 25 25
43 43 43 42 39 38 39 38 38 38 35 37 38 39 40 40 41 36 35 34 33 29 36 32 27 32 36 37 35 35 30 28 24 24 21 21 24 24 23 23 23 26 28 27
40 37 35 36 32 31 31 30 31 32 33 35 35 35 36 37 37 34 34 32 30 35 31 28 31 33 35 34 26 24 24 23 22 22 23 22 21 21 20 21 25 27 28 28
35 33 30 31 29 30 29 30 31 32 33 34 34 32 34 33 34 32 30 31 31 27 26 26 34 36 35 31 24 21 20 20 19 20 22 21 22 23 26 28 28 28 27 28
33 33 28 29 31 32 32 32 32 33 35 34 33 32 33 31 29 31 29 26 25 27 27 30 33 33 31 28 26 21 19 20 24 24 21 21 22 24 25 27 29 30 30 31
33 31 29 31 31 31 32 32 32 34 33 34 34 31 30 28 29 27 27 26 25 28 31 31 30 29 27 26 25 26 26 26 25 25 25 25 24 24 26 29 30 30 30 30
30 30 33 32 32 31 32 33 34 37 34 30 32 28 26 30 27 27 29 27 29 32 31 29 27 26 27 27 27 28 27 27 27 28 27 26 27 27 28 27 28 29 30 30

GFSNW_sfc_30mbdewp_015.txt.gz
Dewpoint
49 48 49 50 50 51 49 42 25 51 38 24 38 33 38 36 28 31 32 32 28 25 30 31 31 30 32 37 35 24 30 26 23 23 27 29 26 24 22 14 20 24 21 19
49 49 49 50 50 49 48 39 48 52 34 22 29 33 35 31 28 30 30 30 32 33 33 30 34 34 36 31 32 29 30 25 22 25 26 26 25 26 28 25 23 21 18 15
48 49 49 50 50 50 47 42 40 43 44 35 25 28 33 30 34 33 32 32 33 31 33 36 34 34 35 29 29 34 33 29 20 13 21 23 19 24 28 24 19 19 17 19
48 49 49 49 49 50 48 45 34 37 35 36 42 33 33 31 30 33 32 31 32 31 32 34 34 35 33 30 32 34 31 25 27 26 26 23 21 20 26 25 25 21 21 23
49 48 49 49 48 48 45 44 37 38 29 30 39 38 35 31 32 32 31 30 34 32 31 31 32 31 28 22 33 34 35 27 23 26 29 27 21 22 22 23 23 25 24 24
49 48 49 49 47 46 42 47 49 34 37 32 35 36 35 33 33 36 35 34 33 32 35 37 37 36 35 34 32 35 30 28 18 9 28 23 15 19 24 24 25 23 22 27
49 48 48 49 47 48 49 50 46 37 35 27 32 37 35 34 33 33 37 36 34 35 36 33 31 32 37 37 37 34 31 27 22 16 18 7 13 27 27 25 27 31 31 33
49 48 48 49 48 50 49 52 45 37 36 35 35 36 38 39 40 38 39 40 39 38 28 28 27 25 26 32 38 35 33 26 20 13 14 14 14 25 26 26 24 34 33 34
49 49 48 49 51 52 51 53 48 38 37 38 40 38 37 35 36 37 40 44 42 37 27 20 16 15 16 25 32 36 31 26 17 23 10 1 8 30 31 29 23 35 35 34
50 49 48 49 52 50 47 50 53 43 38 42 41 37 35 39 37 36 40 41 39 35 27 19 19 18 25 19 23 30 33 31 22 20 15 17 21 31 30 23 14 37 37 36
49 50 49 50 51 51 48 50 52 44 41 45 47 45 40 41 39 34 39 36 37 33 28 22 24 28 29 28 29 29 27 26 26 24 20 13 27 31 27 27 31 38 38 37
49 50 50 50 51 53 50 48 53 50 43 44 48 47 48 46 40 40 40 34 37 35 30 29 32 29 33 29 22 31 24 23 20 24 19 27 31 31 33 34 35 39 39 39
48 48 48 49 51 52 50 51 52 44 41 42 42 44 47 47 47 45 37 40 42 39 38 36 35 25 34 27 29 30 31 31 26 28 26 29 30 32 36 38 38 39 39 39
48 48 48 49 51 52 52 51 51 42 38 34 42 47 45 47 49 48 43 44 45 42 38 34 32 24 34 29 29 31 31 33 30 31 32 35 37 37 37 40 40 39 39 38
48 49 49 50 52 52 51 50 50 50 35 34 42 45 46 46 48 47 47 45 43 41 37 35 33 32 34 35 34 31 34 28 27 23 28 32 32 38 40 39 39 39 37 35
48 49 49 50 52 54 45 37 49 50 47 37 36 44 44 45 47 47 46 46 44 41 39 37 36 38 35 33 34 34 36 36 32 29 33 34 36 39 40 39 39 40 30 24
49 49 50 49 49 48 43 36 48 49 46 36 38 39 42 44 45 44 45 46 45 43 40 37 36 40 38 35 31 32 34 36 37 39 40 39 40 39 40 38 34 27 22 21
48 50 50 50 50 50 48 49 48 48 42 38 32 35 38 43 42 42 42 42 43 42 41 40 40 39 36 36 36 37 37 37 37 38 40 39 40 38 31 24 21 21 23 25
49 50 47 46 46 46 49 48 48 48 41 36 35 29 29 41 39 39 40 39 40 40 40 40 40 37 36 37 37 38 38 38 38 40 40 39 37 31 22 24 28 30 30 23
48 46 40 40 45 46 47 44 41 41 43 40 37 37 36 41 38 38 38 36 37 36 37 40 37 36 38 37 36 37 39 39 40 38 37 30 24 27 32 33 33 32 24 24
45 43 42 45 45 43 40 37 36 39 38 39 38 37 37 40 38 38 36 36 35 32 33 35 32 31 32 34 30 31 33 35 35 33 32 32 33 33 33 32 29 23 23 22
44 43 42 39 38 38 36 34 36 36 35 36 38 37 39 39 38 37 36 34 34 30 34 33 28 29 27 30 32 33 34 34 34 35 35 35 35 35 33 26 21 22 26 27
40 38 37 37 35 35 33 32 32 33 33 34 35 36 36 37 37 35 35 32 30 34 30 29 30 30 32 32 33 34 35 35 35 35 36 34 27 22 19 20 22 25 24 26
36 35 32 32 30 29 30 30 31 32 32 33 34 33 34 33 35 33 31 31 31 28 26 25 30 31 32 34 33 32 32 31 30 26 22 22 23 23 25 24 26 26 25 26
33 31 28 28 29 31 31 32 32 32 34 33 33 32 33 31 30 30 29 26 25 26 24 29 31 32 32 31 31 30 26 25 23 22 23 22 22 23 24 25 26 27 27 27
31 30 29 31 30 30 31 32 31 34 33 33 33 31 29 28 29 27 26 24 22 25 29 33 33 32 31 33 31 27 27 27 27 27 27 26 25 24 25 26 26 26 26 26
28 29 33 32 32 31 32 33 33 36 33 29 30 27 26 29 27 26 28 25 28 31 32 34 32 33 33 32 30 29 28 28 27 25 24 25 26 26 26 25 26 27 28 28

GFSNW_sfc_30mbdewp_021.txt.gz
Dewpoint
49 49 49 50 50 51 50 41 33 48 38 28 32 26 29 40 32 33 31 26 26 25 28 28 28 27 30 35 35 27 28 25 23 22 27 30 27 24 23 14 15 22 19 12
49 49 50 50 50 51 48 35 48 50 35 26 28 31 33 34 29 30 31 31 30 34 31 27 32 32 34 30 31 28 28 25 21 22 23 26 25 26 23 23 25 20 15 7
49 49 50 50 50 51 45 45 41 45 34 32 27 29 29 28 33 32 33 33 34 34 33 35 33 33 34 30 32 34 29 26 20 14 15 24 23 27 24 21 17 17 20 17
49 50 49 49 50 50 47 41 39 43 35 27 26 25 30 27 30 32 32 32 31 32 31 33 32 34 29 31 35 35 28 22 25 26 26 25 20 23 25 22 21 15 15 18
49 49 49 50 50 50 46 37 36 35 36 31 26 26 31 30 31 31 29 31 33 32 30 29 30 31 26 20 34 33 32 24 24 24 28 27 23 22 23 26 25 22 23 22
49 49 49 50 50 49 44 48 40 32 35 38 26 28 32 32 34 36 34 32 32 32 34 36 36 34 33 31 32 31 29 25 21 16 25 21 16 18 21 23 25 25 22 23
48 49 49 50 50 48 46 47 40 31 30 35 29 31 34 33 33 32 36 35 32 36 38 35 34 35 36 35 34 32 26 22 18 15 16 4 11 26 24 22 22 24 23 25
49 48 49 49 49 50 49 50 41 34 29 32 35 37 37 38 39 38 38 40 38 37 31 31 29 28 30 32 32 29 27 22 17 12 14 12 9 16 21 24 15 26 25 28
48 48 49 49 49 50 51 50 44 38 29 30 34 38 37 35 36 37 39 40 37 30 24 25 26 24 24 21 31 34 27 23 17 18 8 3 7 17 30 28 20 26 29 31
48 48 48 49 49 49 51 51 46 42 35 41 39 36 36 37 36 37 36 35 36 32 22 22 22 21 23 16 16 27 31 29 23 18 15 15 19 25 30 17 12 25 33 33
49 49 49 49 48 50 51 51 51 42 43 45 46 41 38 38 38 34 38 36 35 30 26 24 23 22 22 22 24 27 22 23 23 21 18 11 24 31 23 23 29 29 35 35
48 50 50 48 48 48 52 49 52 48 44 45 47 47 47 46 39 40 40 35 36 33 30 27 27 27 29 26 20 31 22 26 22 22 18 24 26 31 32 33 30 31 35 36
48 50 50 48 47 49 51 49 49 44 42 43 44 45 47 48 47 44 37 36 39 35 35 29 28 20 30 23 26 28 30 30 26 25 24 26 28 29 30 32 32 34 36 37
49 50 50 50 50 51 46 47 48 41 40 38 42 45 45 47 49 46 42 40 40 38 36 30 28 21 32 27 27 28 29 31 29 28 28 29 29 32 33 34 35 35 38 39
50 50 51 51 51 50 50 50 49 47 35 38 41 44 44 47 46 44 42 40 38 36 32 29 26 30 31 33 32 27 32 28 26 23 25 27 27 29 34 35 36 38 39 39
49 51 51 50 50 47 43 40 47 47 44 40 38 42 42 44 45 45 45 43 41 39 36 35 34 36 33 31 28 30 32 33 32 28 32 32 33 35 37 38 39 40 38 32
48 48 49 49 48 48 36 35 45 46 44 35 37 39 40 42 43 43 44 45 42 41 39 36 36 38 34 33 31 36 37 38 38 38 38 37 38 38 40 34 27 27 28 30
48 48 48 48 48 48 47 48 46 46 36 34 31 35 39 42 41 40 41 41 42 41 38 37 36 37 36 35 35 33 33 34 39 38 40 39 34 29 25 27 32 34 34 34
45 46 47 45 46 45 46 46 45 44 37 30 30 26 29 41 38 38 39 39 39 39 38 38 39 35 33 30 31 32 33 33 34 35 28 29 30 31 33 35 34 32 32 32
44 42 39 40 45 45 44 40 38 39 40 40 33 35 34 40 38 37 37 37 35 33 36 39 37 33 30 33 33 34 33 34 34 33 30 33 33 33 33 33 33 33 32 31
42 41 42 45 43 40 37 35 34 36 36 37 36 37 35 39 37 37 35 35 34 31 32 35 33 29 28 33 34 34 35 35 35 35 35 35 34 33 32 32 32 31 31 30
43 43 41 39 37 35 34 33 35 34 33 35 37 37 38 37 38 36 35 33 33 29 34 33 29 28 32 32 33 32 32 32 32 33 32 32 30 29 29 30 30 29 29 30
40 38 36 35 34 32 29 30 31 31 33 34 35 35 35 36 36 35 34 32 30 33 30 29 28 31 32 32 32 32 30 30 29 29 30 30 29 28 28 26 27 28 28 28
35 35 32 31 31 31 31 31 32 31 33 34 35 34 34 34 35 33 32 31 31 28 26 25 29 30 31 32 33 32 30 30 27 25 25 25 26 26 26 26 27 27 26 28
33 32 27 27 29 30 31 32 32 32 33 34 34 33 34 32 31 30 29 26 24 24 23 27 30 31 31 32 30 25 25 24 25 27 27 25 25 24 25 26 27 26 26 26
32 31 28 31 29 29 31 32 31 34 33 34 34 31 30 28 29 27 26 24 22 23 29 31 31 30 31 31 28 28 29 28 28 26 26 26 26 26 27 27 27 26 27 26
29 30 32 32 31 30 31 32 32 34 33 30 30 28 26 28 26 25 27 25 26 30 31 32 32 32 32 33 33 30 27 25 26 27 28 27 26 25 25 24 25 24 25 25

GFSNW_sfc_30mbdewp_024.txt.gz
Dewpoint
50 51 51 50 50 51 50 43 36 54 51 42 37 30 29 36 33 36 29 28 27 24 26 26 22 23 27 35 32 27 28 27 25 25 28 29 27 23 20 13 16 23 21 8
48 52 50 50 50 50 47 39 44 51 43 34 34 32 30 36 30 31 31 29 30 33 30 27 31 31 34 33 32 30 30 27 24 23 25 27 25 25 22 25 25 19 21 6
46 51 50 50 50 50 46 40 39 47 41 35 31 29 28 29 34 33 34 34 35 34 32 35 33 33 34 33 33 32 29 28 24 21 18 23 24 25 22 18 19 14 16 7
46 51 50 50 50 50 48 43 37 40 35 32 31 29 28 25 31 33 34 33 32 31 32 32 33 34 30 33 36 36 32 26 26 24 25 24 22 22 23 19 19 17 9 13
46 50 50 50 50 50 47 39 39 41 35 31 28 28 28 24 32 32 31 31 33 34 32 29 31 33 30 29 35 34 33 28 28 26 27 25 23 22 21 23 21 21 18 17
49 50 49 50 50 50 44 47 42 36 37 31 27 27 26 26 34 37 34 34 34 34 36 38 37 36 33 30 33 34 32 29 25 21 24 24 20 23 21 20 23 23 18 19
50 49 49 49 50 49 43 48 40 37 34 33 26 27 29 32 34 35 36 37 35 39 39 36 36 36 35 33 33 33 31 28 27 24 20 11 14 21 21 20 20 20 21 18
49 49 49 49 50 49 51 50 42 39 36 34 30 28 28 38 38 39 38 40 39 38 36 34 32 32 32 34 32 30 29 28 23 23 17 13 6 16 19 21 15 20 20 20
48 49 49 49 49 49 52 51 48 43 34 34 32 30 36 36 38 39 39 39 39 34 36 34 30 29 28 27 32 32 28 28 27 22 18 13 16 23 29 28 17 21 27 28
49 48 48 49 49 49 53 51 51 43 41 38 39 33 35 39 39 39 38 37 38 36 34 31 33 29 27 23 21 28 32 32 28 27 25 22 21 21 30 18 16 28 31 32
48 48 48 49 49 49 53 53 53 47 46 42 46 42 40 40 40 38 39 37 38 36 32 34 32 31 27 25 24 29 26 29 28 27 24 18 24 29 23 27 31 31 31 33
48 48 48 49 49 49 53 50 52 52 46 46 49 48 48 47 42 41 40 40 38 37 38 35 36 31 30 32 27 30 26 28 27 26 24 27 28 29 32 34 32 32 34 32
48 48 48 49 49 49 52 51 51 50 48 46 46 46 48 49 49 47 40 41 41 39 41 39 39 26 35 29 31 31 30 31 30 27 24 26 28 29 29 30 31 32 32 33
48 48 49 48 48 50 51 50 50 48 47 43 45 47 47 48 49 48 45 44 43 40 40 38 33 29 35 34 32 31 31 31 30 30 29 28 29 30 31 32 35 36 36 37
48 49 48 48 49 50 51 51 51 48 42 43 45 46 46 47 46 44 44 42 40 40 38 31 34 36 36 36 35 32 32 30 30 28 31 30 30 33 35 36 37 39 39 40
49 49 49 49 49 49 49 44 50 47 48 46 43 45 44 46 46 46 45 44 43 41 40 39 37 37 38 33 32 36 37 38 38 36 38 38 38 38 40 40 35 34 34 34
49 49 48 46 46 48 41 41 48 46 47 45 41 43 43 44 46 45 46 46 45 44 42 39 40 39 37 36 34 35 35 35 36 38 40 38 38 36 33 33 34 34 35 34
49 49 48 48 48 49 48 47 46 46 41 42 37 38 43 44 43 41 43 43 45 42 39 39 38 39 39 37 34 34 34 35 38 34 36 36 32 32 34 35 35 34 33 32
47 47 47 49 48 48 48 46 45 47 43 33 32 34 36 42 39 40 41 42 39 40 39 40 40 36 35 32 32 33 34 34 35 34 34 34 34 35 35 34 33 32 32 32
45 46 41 42 47 44 45 43 41 41 42 41 33 38 36 40 40 37 39 39 36 35 37 40 38 30 32 33 34 34 35 35 36 34 32 32 32 32 33 33 34 32 29 30
44 44 43 47 43 43 40 36 35 38 35 38 37 39 37 40 38 36 37 36 36 33 35 36 34 29 30 34 34 35 36 36 36 35 34 33 32 33 32 30 31 32 32 31
45 45 44 42 39 38 33 34 36 35 33 36 37 37 39 38 39 37 36 34 34 31 36 33 30 29 32 33 33 33 33 33 32 31 30 30 30 30 31 29 28 27 28 30
44 39 36 37 35 31 29 27 32 32 34 35 36 35 37 38 39 35 35 32 32 35 31 30 29 30 31 32 31 30 29 29 28 26 25 25 26 27 28 28 28 30 28 28
37 35 31 32 32 31 31 32 33 32 33 35 36 34 36 35 35 34 33 31 32 29 27 27 28 30 32 32 31 28 26 27 26 25 26 27 27 27 28 29 29 29 28 29
33 32 28 28 29 31 31 32 32 32 34 35 35 35 36 33 33 32 31 28 28 28 27 28 31 32 32 32 30 28 26 26 29 28 27 27 28 29 29 29 27 27 28 27
33 32 29 31 30 30 31 32 31 34 34 35 34 32 32 30 31 30 29 28 26 28 30 31 31 31 32 30 27 29 31 29 27 28 28 29 28 28 27 27 23 24 24 24
31 30 31 32 31 30 31 32 31 34 34 30 32 30 28 31 28 27 29 28 30 31 31 32 32 32 33 33 33 30 28 28 29 28 27 26 25 23 20 17 16 17 18 20

GFSNW_sfc_30mbdewp_027.txt.gz
Dewpoint
46 49 50 52 52 50 49 46 38 51 55 39 42 35 30 26 27 33 25 25 19 18 19 18 15 17 21 28 28 23 25 20 20 23 27 27 25 22 22 18 15 19 23 14
44 47 49 51 51 50 46 44 43 55 49 37 40 34 29 28 28 30 27 22 24 21 20 20 19 18 35 34 31 24 29 20 19 22 25 26 21 20 21 19 23 17 18 12
44 47 50 50 51 50 47 42 37 48 49 40 36 32 28 28 30 29 27 22 28 27 26 28 26 27 33 35 32 31 30 22 21 19 20 21 23 20 20 20 18 15 11 10
46 47 48 50 51 49 47 43 34 39 38 39 36 31 28 25 28 31 31 29 27 26 26 28 29 29 32 34 35 31 31 25 23 22 23 22 20 17 20 19 17 14 15 8
46 47 47 50 50 49 47 41 33 36 37 37 34 31 28 23 27 30 30 26 25 25 25 27 26 31 30 29 35 33 31 24 28 27 26 24 21 20 17 16 15 13 12 12
46 47 47 47 50 49 44 46 43 37 39 37 32 31 27 24 29 37 32 28 27 28 33 37 37 35 33 31 34 33 32 28 26 19 23 22 21 24 21 18 16 18 17 17
45 44 45 45 49 48 44 46 41 39 37 36 31 28 27 25 30 32 34 33 31 39 38 37 36 34 33 33 34 34 33 30 30 23 23 14 11 18 16 17 17 15 15 15
46 45 45 45 49 49 46 50 45 39 37 33 27 26 27 27 34 35 36 39 39 39 36 34 33 33 33 31 29 28 30 29 27 28 17 14 13 10 17 17 14 16 18 17
46 46 45 49 49 49 51 54 50 40 39 33 27 25 25 32 37 40 40 41 40 39 38 37 29 27 26 29 32 30 28 30 25 25 24 19 22 21 24 24 16 20 20 20
47 47 49 49 49 49 49 53 54 37 30 29 30 26 26 31 35 37 40 40 39 39 41 36 34 28 28 25 27 32 33 33 29 28 28 26 22 22 27 17 23 27 26 24
48 49 49 48 48 49 50 53 54 42 39 39 40 32 30 30 35 40 40 38 39 37 36 39 36 37 30 28 24 30 29 32 30 33 31 21 22 26 21 30 26 26 29 29
49 48 48 48 48 49 50 51 53 51 42 46 48 49 48 42 37 36 40 34 39 39 35 41 42 36 34 33 26 28 27 29 29 27 26 27 25 24 26 29 30 30 30 31
48 48 48 48 49 49 50 51 52 48 48 46 44 44 48 49 50 50 39 43 40 40 44 42 43 34 38 32 32 31 30 31 28 28 21 22 24 26 28 29 30 31 33 34
47 48 48 48 49 49 50 50 52 47 48 44 45 48 47 49 48 47 48 44 46 44 43 46 38 38 37 38 34 30 31 30 28 28 26 25 27 29 32 35 36 37 37 38
48 48 48 48 49 49 52 51 51 50 41 45 46 47 47 47 47 45 45 45 42 41 42 35 40 39 39 39 37 34 31 29 32 30 33 35 34 37 39 39 38 38 38 38
48 48 48 48 49 50 50 45 49 48 48 47 44 47 46 46 45 44 43 44 42 41 44 44 38 39 39 37 32 36 36 36 36 35 39 39 40 37 36 35 35 35 34 34
48 48 48 48 49 48 47 40 49 48 49 48 44 44 45 46 45 46 45 46 45 43 43 44 42 39 39 39 35 37 35 35 37 37 38 39 36 34 36 36 35 34 34 33
48 48 48 48 47 48 47 46 46 48 43 44 42 42 45 46 46 44 45 46 46 44 42 42 42 40 42 38 36 35 35 37 36 35 35 34 35 36 36 35 33 32 32 33
48 48 49 49 50 46 47 45 48 49 46 40 40 41 39 44 42 43 44 45 41 42 40 41 41 38 37 34 34 34 35 35 35 35 36 36 35 34 33 32 32 32 32 32
48 47 43 42 48 45 46 45 43 45 43 42 38 41 39 41 42 39 40 41 39 36 39 41 39 33 33 34 34 34 35 36 35 35 32 34 32 32 32 31 29 27 29 29
48 47 45 47 44 45 43 38 39 40 37 38 38 40 38 41 39 36 40 37 37 34 36 36 34 32 31 34 34 35 36 36 36 35 34 32 32 31 29 29 30 30 28 27
47 47 46 45 42 41 32 33 37 38 35 37 37 38 38 40 41 38 38 35 35 32 36 34 31 30 33 33 34 34 33 33 32 32 31 30 29 29 27 25 26 28 28 31
46 42 37 39 38 32 32 28 32 33 35 36 38 36 39 39 39 37 36 33 33 36 32 30 31 31 33 33 33 30 29 29 28 26 25 24 25 28 28 28 29 31 29 30
39 37 32 34 33 31 30 32 33 32 34 37 39 36 37 37 35 36 33 32 34 30 29 29 29 31 33 33 30 28 25 28 25 25 26 27 27 29 31 31 30 30 27 27
34 34 29 28 30 31 31 32 33 33 35 37 37 37 38 35 34 35 32 29 29 30 30 30 31 32 34 32 29 26 26 28 29 27 28 30 31 29 29 27 24 25 25 25
33 32 30 31 31 30 32 32 31 34 34 36 38 34 33 31 33 31 30 30 29 30 32 32 33 33 33 32 28 27 30 30 28 29 29 30 28 28 26 22 19 23 22 21
32 30 32 33 31 30 30 31 31 34 34 31 33 31 29 33 30 29 32 30 31 32 32 33 33 33 33 29 32 31 29 28 29 29 28 26 24 22 18 16 15 15 15 17

GFSNW_sfc_30mbdewp_030.txt.gz
Dewpoint
44 46 47 49 52 52 51 44 37 49 54 41 36 39 35 33 29 24 26 22 16 14 16 16 13 15 18 23 23 23 21 21 19 21 22 24 22 23 20 22 17 21 22 21
43 46 45 48 51 51 48 40 41 52 50 33 35 38 36 31 29 27 28 22 21 19 18 17 16 16 34 32 29 27 27 22 18 16 22 25 21 18 18 21 25 22 22 18
40 45 44 47 51 51 49 41 39 50 50 35 35 37 33 30 30 25 27 25 21 22 18 21 20 21 33 34 32 31 33 23 17 20 18 22 23 21 17 18 23 21 18 13
43 45 44 45 50 51 50 43 37 43 42 42 36 37 32 29 27 26 27 24 20 25 24 20 25 24 34 34 35 31 30 21 19 18 20 23 23 19 18 17 19 19 21 14
45 43 44 45 50 51 47 40 37 41 38 39 36 37 34 28 26 26 28 25 23 26 24 25 25 26 32 29 35 30 31 28 27 27 26 24 23 22 21 17 15 16 14 13
43 43 45 45 49 50 45 44 46 43 38 37 36 38 36 30 27 28 28 28 26 25 29 34 37 36 33 30 34 32 32 32 29 25 25 22 17 21 21 18 17 16 16 19
43 45 47 46 47 49 47 43 45 42 37 36 36 38 35 28 28 31 30 30 28 37 38 37 36 34 34 35 35 34 34 33 32 27 25 13 14 18 16 16 15 14 13 16
44 44 47 46 44 47 49 47 48 45 39 35 34 38 35 29 27 32 32 40 40 40 38 37 34 34 29 31 30 31 32 34 31 28 22 18 18 15 16 16 15 18 18 18
45 45 45 46 45 46 48 48 55 51 42 38 34 32 32 30 34 40 41 41 42 39 39 37 30 28 27 26 30 27 28 32 28 27 25 18 24 21 22 21 16 22 23 23
45 45 44 44 45 45 44 48 52 54 44 39 36 31 32 34 39 40 40 41 40 42 45 37 31 27 26 28 31 32 33 33 29 30 28 29 24 23 25 19 27 27 28 27
45 45 45 45 45 44 44 47 51 52 47 38 37 32 31 33 40 41 41 39 39 41 36 37 37 37 32 26 27 33 32 34 32 34 33 25 23 25 22 32 30 29 29 30
45 46 46 45 45 44 49 46 50 52 52 48 50 49 47 44 40 43 43 38 39 41 37 39 41 38 36 35 27 26 26 31 33 33 31 31 23 24 25 28 29 30 32 32
45 47 47 47 48 49 49 47 50 53 48 46 44 45 49 49 50 51 42 42 39 39 42 46 45 37 41 32 34 31 29 31 31 29 23 24 25 26 27 32 35 35 36 37
47 47 47 48 49 49 49 48 50 54 48 44 47 48 47 48 48 48 50 45 47 48 49 48 39 40 39 40 33 33 32 31 28 27 28 29 30 37 39 39 39 39 39 39
48 48 48 48 49 49 50 51 53 53 42 45 46 47 47 46 47 46 48 48 46 46 45 33 39 41 42 42 39 35 33 30 32 33 37 37 38 37 38 37 36 36 35 34
48 48 48 48 49 49 50 50 50 51 49 47 44 47 46 45 45 44 45 46 44 43 47 45 41 41 43 36 34 35 36 36 37 37 38 39 38 37 37 36 36 35 34 34
47 48 48 48 49 50 50 45 49 47 51 48 44 43 46 46 46 47 45 45 45 44 45 46 43 39 43 40 35 36 35 35 37 36 38 37 36 36 36 35 34 34 33 33
47 48 49 49 49 49 49 48 46 47 44 47 42 42 44 47 46 45 47 47 46 45 43 44 44 42 44 39 37 35 35 37 36 35 35 36 36 35 34 34 33 32 32 32
48 48 49 49 48 48 46 45 48 52 46 42 41 40 39 45 43 44 45 46 41 43 41 42 42 39 38 36 35 35 36 36 36 36 36 35 34 33 32 32 31 31 31 29
48 48 43 45 49 46 45 46 44 42 44 43 40 43 40 43 42 40 40 42 39 36 40 42 40 34 34 34 35 35 36 36 37 35 33 33 32 31 30 29 30 31 30 28
48 45 45 48 46 47 43 38 38 39 40 38 40 41 40 43 39 37 41 37 38 34 37 37 35 33 33 34 34 35 36 37 36 35 33 33 31 30 31 29 28 27 29 30
47 47 48 47 44 42 34 35 37 39 36 37 37 39 39 41 41 38 39 34 36 32 37 35 32 32 33 34 34 34 33 33 32 32 31 30 30 28 26 27 28 30 31 31
46 41 39 40 38 33 32 29 33 32 35 36 38 36 39 40 39 36 35 32 33 36 32 30 32 33 33 34 32 31 31 31 30 29 28 27 29 30 30 30 31 31 30 28
39 37 33 34 32 30 30 31 32 32 34 38 37 36 37 38 35 36 32 33 34 31 29 30 30 32 33 33 31 29 28 27 24 25 28 29 30 30 30 30 29 26 24 24
34 34 28 28 30 31 32 33 33 33 36 37 37 38 38 35 33 34 32 30 29 31 30 30 32 33 34 31 29 28 29 30 29 28 30 30 30 29 27 24 24 24 24 23
33 32 30 31 31 30 31 31 31 34 34 37 38 34 32 31 33 31 31 30 29 30 31 32 33 34 34 33 29 29 29 30 30 30 30 30 29 27 24 20 20 24 19 17
32 29 32 32 31 29 30 31 32 35 34 32 34 31 29 33 31 29 31 28 30 31 31 33 34 34 35 33 32 31 30 30 30 30 29 27 24 21 19 17 15 14 16 14

GFSNW_sfc_30mbdewp_033.txt.gz
Dewpoint
41 43 46 46 48 50 51 48 40 47 51 42 41 37 39 39 35 37 35 25 22 16 17 18 15 16 29 22 27 25 32 33 29 28 28 24 23 22 27 18 17 24 22 20
43 42 44 47 48 49 47 44 42 49 45 31 36 36 38 40 37 36 32 26 25 23 19 21 18 29 35 33 29 27 31 24 21 18 24 27 23 21 20 24 28 21 19 18
43 41 42 46 47 49 47 44 37 47 47 31 34 33 32 37 38 37 34 28 28 24 20 22 21 31 33 35 33 31 32 26 20 16 18 24 24 23 22 19 21 21 21 21
41 40 43 44 46 48 47 45 36 42 39 41 34 33 31 36 36 36 33 29 27 24 22 22 25 34 33 35 33 31 30 23 21 20 24 25 24 24 24 19 22 19 19 21
40 40 41 43 46 47 46 42 37 43 43 41 40 34 34 35 34 35 30 30 26 25 25 27 23 32 32 31 34 30 31 27 27 26 28 25 23 24 24 23 21 19 21 21
41 42 42 42 46 47 43 43 44 41 41 41 39 33 34 35 35 33 31 29 28 28 31 35 36 34 33 33 32 31 31 30 28 25 24 21 19 21 21 22 23 20 16 21
42 42 43 42 46 46 46 42 43 41 36 41 39 32 33 37 35 35 31 30 30 36 39 38 37 36 36 37 37 36 34 33 31 25 24 16 19 18 15 14 19 19 19 21
41 42 43 45 45 46 46 46 45 45 38 39 37 31 35 38 38 35 32 38 37 40 39 36 32 31 28 31 31 33 37 33 31 24 20 23 19 20 20 17 20 23 23 24
45 44 45 44 44 46 45 42 46 47 43 40 37 31 36 37 38 41 43 44 44 41 40 34 28 26 27 28 27 33 33 35 25 32 20 12 23 21 23 21 22 28 27 28
44 44 43 45 46 47 45 44 46 46 45 44 40 32 33 39 40 41 44 43 42 45 38 32 28 26 30 29 30 28 29 31 26 25 20 26 30 24 25 15 23 29 29 30
43 43 45 46 45 45 43 42 45 46 46 47 45 38 37 39 42 39 43 44 41 42 32 32 34 31 29 30 34 32 28 28 27 34 29 22 28 25 19 32 31 30 31 33
44 45 45 45 45 45 45 40 45 47 46 48 52 50 51 45 44 43 42 40 40 41 38 40 39 35 35 31 27 34 27 34 29 31 30 33 26 25 30 30 34 36 38 39
45 45 45 44 45 45 44 41 44 47 46 45 49 47 48 50 49 48 39 44 43 43 47 44 43 31 38 29 30 30 32 34 31 30 30 29 30 39 40 40 39 39 36 35
45 45 45 45 45 45 45 42 44 49 46 43 47 50 47 48 50 49 49 46 50 50 48 41 38 33 41 34 32 32 33 31 30 29 33 39 39 40 38 37 37 35 34 33
45 45 46 46 45 45 46 46 47 51 48 42 46 47 47 48 48 48 49 48 47 46 38 31 33 42 41 40 37 33 33 32 28 30 39 37 36 37 37 36 35 35 34 32
44 45 46 46 48 49 47 42 48 51 51 46 42 47 47 46 46 47 47 47 46 48 43 43 42 42 37 32 31 36 37 38 39 38 39 38 37 36 36 35 34 34 33 32
47 47 47 47 49 49 45 43 50 50 50 46 41 42 46 47 48 47 47 48 48 47 46 44 39 39 41 36 34 35 36 37 37 38 38 37 37 34 34 34 33 33 33 33
47 48 48 49 50 51 47 51 50 48 50 46 40 42 44 47 45 44 47 47 45 44 43 44 41 42 42 35 35 35 37 36 37 37 37 36 35 34 33 33 32 32 32 32
48 48 49 49 49 46 48 48 46 52 46 40 40 38 39 45 43 43 44 45 40 44 40 42 39 39 37 36 35 36 36 36 36 36 35 34 33 33 32 32 31 30 31 31
49 49 48 45 49 48 46 46 40 41 43 41 40 42 40 42 40 39 39 40 39 36 39 40 38 33 34 35 36 36 37 36 35 33 32 32 31 31 31 31 31 30 29 29
49 46 44 48 48 47 41 37 37 39 36 37 38 41 40 43 37 37 40 36 37 33 36 35 34 33 34 35 36 36 37 37 36 35 33 33 32 31 30 28 30 29 29 28
48 47 49 47 45 39 34 33 35 35 34 36 37 38 40 40 42 37 38 34 35 32 37 34 30 32 34 34 34 35 35 34 33 33 31 31 30 29 29 30 30 29 29 28
44 39 38 39 36 32 31 29 32 32 34 36 38 36 38 38 38 36 34 33 32 35 31 29 31 33 34 34 33 32 32 32 31 30 31 31 30 30 30 30 30 27 24 25
37 35 31 32 30 29 29 30 31 32 34 36 37 36 36 37 34 35 30 33 33 29 27 28 30 33 34 33 32 31 30 28 29 28 29 29 29 28 27 25 25 24 23 24
33 31 27 27 30 31 32 33 32 33 36 37 37 36 36 34 32 32 31 30 27 29 29 30 32 34 33 31 29 28 28 29 29 30 30 29 27 24 24 24 23 21 20 21
32 31 29 31 31 30 31 31 32 34 34 37 37 34 32 31 32 30 31 29 27 28 30 32 34 34 32 29 29 30 31 30 30 31 30 29 26 22 21 23 19 16 14 18
31 29 31 31 30 29 30 31 32 36 34 32 33 30 29 33 31 28 29 26 29 30 31 33 34 34 33 30 31 32 31 31 30 29 27 24 23 21 19 15 18 19 15 16

GFSNW_sfc_30mbdewp_036.txt.gz
Dewpoint
42 42 41 44 44 46 47 44 38 49 51 40 38 38 36 37 36 38 38 36 30 20 19 18 17 17 16 27 31 24 32 31 26 23 29 30 27 23 24 18 16 24 21 19
40 42 41 41 46 45 43 40 42 49 48 36 32 36 37 36 34 36 36 33 31 25 19 19 20 23 34 34 29 27 31 29 23 23 24 28 26 22 24 27 25 19 18 18
40 40 40 42 45 46 44 41 36 43 45 39 31 32 35 36 36 36 39 38 37 32 23 25 24 30 33 35 31 33 30 25 22 20 18 23 24 25 24 22 20 21 22 21
40 40 40 40 44 47 43 41 35 37 37 38 34 31 34 34 33 37 37 33 35 35 23 22 29 34 33 35 31 32 28 23 23 21 23 28 25 24 25 23 22 18 17 21
39 40 40 42 44 47 41 37 38 40 39 38 37 32 32 31 30 30 30 33 34 32 25 23 28 30 31 26 32 28 31 22 26 22 27 24 24 23 23 24 23 24 23 22
39 39 41 41 43 46 40 42 44 40 35 38 37 34 32 29 29 30 32 33 32 32 29 30 29 33 32 31 28 30 29 28 26 22 24 21 20 21 22 22 24 23 19 21
40 41 39 43 43 44 42 42 42 40 34 39 37 35 33 30 31 28 34 34 34 34 39 37 35 35 38 36 36 36 31 31 28 24 22 19 22 23 22 20 21 22 22 23
40 40 41 41 42 43 44 44 43 43 34 37 40 38 34 31 32 36 31 35 36 40 38 34 32 32 33 30 32 35 36 32 29 24 21 23 22 19 18 17 22 24 24 25
40 40 41 41 42 43 42 45 47 44 40 36 38 40 35 31 35 35 37 44 45 43 38 31 26 27 29 29 27 33 35 33 29 30 21 19 20 22 23 24 22 28 28 28
41 41 41 41 42 43 43 43 47 43 41 43 40 38 37 34 34 39 43 42 42 43 33 30 27 26 29 26 26 25 29 30 28 26 22 17 25 25 25 11 15 29 30 30
42 42 41 41 42 43 45 43 47 43 42 43 48 41 34 34 37 38 43 42 42 40 32 30 31 26 30 30 31 28 25 28 28 29 22 21 31 24 21 25 32 32 34 35
41 42 42 42 42 45 45 41 47 47 41 43 47 46 47 46 39 42 45 38 40 41 36 38 36 34 32 31 30 35 26 25 25 29 26 31 29 29 33 34 35 38 39 40
43 44 44 44 45 45 42 44 45 43 40 41 46 45 49 50 47 45 39 43 43 44 44 41 38 30 33 28 28 32 32 37 32 32 35 37 38 39 39 40 37 35 37 37
43 44 45 44 44 45 43 42 46 42 43 39 43 51 47 49 51 46 43 42 47 49 46 40 36 29 37 29 29 28 32 33 31 35 38 38 37 37 36 35 34 33 33 33
45 45 45 45 46 46 44 44 45 47 44 40 40 45 48 50 52 50 46 47 47 43 36 32 31 40 38 37 35 32 33 31 29 29 37 35 37 37 36 35 34 33 32 32
45 45 45 45 45 45 42 38 43 47 46 43 38 47 48 49 52 52 48 48 48 45 39 42 42 43 35 31 30 36 37 39 37 37 38 37 36 35 35 33 33 32 32 32
45 46 46 46 46 44 39 39 46 47 47 42 37 40 48 49 48 47 49 50 48 46 45 42 38 40 38 32 30 36 37 38 38 37 36 35 35 34 34 33 33 33 32 32
44 45 46 46 46 44 43 48 50 51 45 44 38 39 43 46 43 43 46 45 45 44 42 42 38 42 37 32 36 37 37 37 37 37 37 35 34 33 32 32 32 31 31 31
45 45 46 46 46 44 42 49 50 50 46 40 39 39 38 44 41 41 41 41 39 42 40 41 38 37 36 35 36 36 36 36 34 34 34 33 32 32 32 31 30 31 29 28
47 46 43 42 45 51 48 46 44 44 43 40 39 40 39 41 38 38 38 39 38 36 39 40 36 32 34 36 37 37 36 35 34 33 32 31 31 31 31 31 31 29 28 28
45 44 43 47 50 48 44 39 37 38 34 37 39 40 39 42 37 37 38 36 36 34 36 36 34 32 34 37 37 38 37 36 35 34 33 32 32 31 30 29 29 28 28 28
48 47 48 47 42 37 34 32 34 34 32 36 37 39 40 40 40 37 37 34 34 31 37 34 31 33 36 37 37 37 36 34 33 33 32 31 30 30 29 28 28 27 28 27
44 41 38 36 34 31 30 29 30 30 34 36 37 36 38 37 37 35 34 32 30 34 31 29 30 33 35 35 34 33 32 32 31 31 31 31 31 30 28 26 26 27 25 22
35 33 29 30 28 28 28 30 31 32 33 36 36 36 36 36 35 34 31 33 33 29 27 28 30 33 34 33 33 30 30 30 30 29 29 29 28 28 27 24 23 23 20 16
32 32 26 27 30 31 31 32 32 33 35 36 36 35 35 34 32 32 31 29 26 28 27 30 32 34 32 31 29 29 28 29 29 28 27 27 25 24 24 23 23 22 18 16
31 30 29 30 29 29 30 31 31 34 35 35 35 33 31 31 31 30 29 26 25 27 29 32 34 31 30 29 29 30 30 29 29 28 26 25 23 21 20 19 18 19 17 15
29 28 31 31 30 29 30 31 32 35 34 32 31 28 28 32 29 25 27 24 27 29 31 33 33 31 31 33 31 31 32 31 31 30 27 24 22 23 20 16 16 17 18 16

GFSNW_sfc_30mbdewp_039.txt.gz
Dewpoint
40 44 43 43 44 44 45 41 34 49 50 41 39 33 35 36 34 36 37 38 36 30 21 19 18 17 17 20 27 22 28 24 18 21 30 29 26 24 22 18 16 24 22 18
42 43 43 41 43 43 43 37 39 49 47 34 34 35 33 36 33 34 35 35 35 33 23 18 20 20 29 34 26 24 32 26 19 20 23 28 26 26 27 26 24 20 16 17
44 45 42 41 44 45 44 38 34 43 43 38 34 33 34 35 37 34 36 38 38 34 29 25 22 26 33 35 31 30 29 28 20 17 18 23 24 25 24 25 20 19 21 19
45 43 42 42 41 45 44 38 32 37 36 37 36 33 33 34 34 36 33 33 36 36 31 24 28 33 34 33 33 32 27 22 24 23 21 25 23 23 25 22 22 20 19 23
43 42 42 42 40 43 43 34 36 39 37 37 36 34 32 32 34 34 33 29 32 29 31 30 27 31 31 29 32 30 29 23 23 22 26 25 24 24 24 25 23 23 23 22
43 41 41 40 41 41 39 38 41 38 35 35 35 34 31 32 33 34 34 33 34 33 34 34 32 33 31 29 29 28 27 26 23 19 25 22 20 23 24 23 24 23 20 21
41 41 40 40 41 40 40 39 41 39 31 36 34 33 33 31 33 31 33 32 30 36 38 37 36 36 35 35 35 32 28 26 26 20 22 16 21 25 23 23 22 22 22 22
41 40 40 40 41 40 39 41 42 40 35 34 36 34 35 33 32 32 31 31 29 35 37 33 33 33 32 30 35 36 33 29 25 22 21 22 23 21 20 18 20 24 25 29
40 39 40 41 41 39 40 40 43 42 39 35 37 36 35 33 32 32 32 38 39 41 37 32 29 29 30 30 29 34 33 32 25 25 23 22 23 24 23 24 18 25 27 29
39 39 40 40 40 41 41 40 41 43 38 40 39 37 36 35 32 31 34 35 42 42 35 31 26 26 31 28 29 28 32 30 29 26 25 24 24 25 23 15 14 28 29 29
38 40 40 41 40 40 43 39 44 43 39 39 45 44 39 38 35 32 40 40 42 39 35 32 28 28 29 28 29 27 29 30 29 26 24 25 28 27 17 21 31 31 31 33
39 40 41 41 42 42 42 38 42 47 40 40 43 43 45 44 39 35 42 38 39 39 36 36 34 28 31 30 25 34 25 28 29 29 28 30 32 27 31 33 31 34 35 38
40 41 41 41 41 42 42 40 45 43 39 38 39 42 45 48 47 47 36 42 44 42 44 39 37 30 32 28 29 32 32 33 27 30 34 35 37 37 37 38 37 38 40 38
42 41 42 41 42 42 43 41 45 41 41 36 39 48 45 50 51 50 46 42 49 47 45 39 35 30 35 29 29 31 32 34 34 35 38 37 37 36 35 34 34 34 34 33
42 42 42 42 42 42 42 45 45 45 39 37 39 44 46 51 52 50 46 46 46 43 39 35 32 38 36 36 34 30 34 32 31 29 37 32 36 36 35 33 33 33 33 32
43 43 42 42 43 45 41 36 39 46 46 39 35 43 44 50 52 49 45 45 46 43 37 39 42 43 36 32 30 34 37 37 34 32 39 37 36 35 34 33 32 32 31 31
44 45 45 45 44 42 37 34 41 43 45 39 35 36 42 50 49 48 49 49 46 46 43 40 39 41 36 32 28 35 38 38 37 36 36 34 34 33 33 33 33 32 32 32
44 44 44 44 43 41 37 46 44 44 40 40 35 35 41 47 44 44 46 44 45 44 43 41 39 41 36 33 36 37 37 36 36 36 37 35 33 33 32 32 32 31 31 31
45 44 44 44 41 38 38 49 49 50 44 37 37 35 35 44 41 42 41 42 40 42 40 41 39 36 35 36 36 36 37 36 34 33 33 33 32 31 31 31 30 29 29 29
45 43 41 36 39 45 45 43 39 43 43 42 38 40 39 41 38 37 39 39 38 37 39 38 37 36 35 36 37 36 35 34 33 32 31 31 31 30 30 30 28 28 27 28
42 39 39 46 47 41 39 35 35 36 35 37 38 40 39 41 37 36 37 36 35 34 36 37 33 33 34 36 36 36 35 35 37 35 34 33 31 30 30 29 28 27 27 27
41 45 47 44 40 37 33 31 33 33 32 36 37 38 40 39 40 37 36 34 33 32 36 35 32 33 35 37 37 37 36 35 34 34 33 32 32 31 29 27 27 27 28 26
45 40 36 36 32 30 30 28 30 31 33 35 36 36 37 36 36 34 32 30 30 33 32 31 30 34 36 36 35 34 34 34 32 31 31 30 29 28 27 27 27 26 24 24
36 32 28 29 26 27 27 29 30 32 32 34 36 35 35 35 34 33 30 32 32 28 25 25 30 34 35 33 33 32 31 31 31 30 30 28 26 25 26 26 23 20 19 21
32 31 25 27 30 31 31 32 32 33 34 35 36 35 35 33 32 32 31 29 27 27 25 29 32 33 32 31 30 30 29 29 29 29 28 27 24 23 23 23 20 17 17 16
30 29 28 29 29 29 30 31 31 34 34 34 34 31 30 30 31 29 26 25 24 25 28 31 32 31 31 30 30 30 30 29 28 28 27 26 25 22 22 22 18 16 15 14
28 28 31 30 30 28 29 30 30 34 34 30 31 28 26 31 26 23 25 22 25 28 30 32 31 31 31 31 31 30 30 28 27 26 26 25 22 19 18 18 18 16 16 15

GFSNW_sfc_30mbdewp_042.txt.gz
Dewpoint
43 42 42 44 46 43 42 40 31 47 51 41 38 35 34 34 35 37 36 37 37 34 23 21 19 19 18 21 24 20 27 21 16 18 29 29 25 24 23 20 18 23 21 17
43 42 42 44 46 42 40 36 36 48 46 33 35 35 34 34 35 35 35 35 36 36 26 20 21 21 22 26 23 22 28 22 15 16 22 28 26 26 26 25 24 20 18 18
44 42 42 42 46 43 40 37 30 40 42 36 33 32 31 32 35 34 35 36 37 34 31 28 21 20 30 34 26 29 28 25 17 14 15 21 24 25 27 25 22 21 21 20
44 42 41 44 46 44 40 38 30 36 33 34 34 31 31 32 29 34 35 34 35 34 29 29 26 30 33 33 35 31 26 19 24 21 22 23 23 24 25 24 23 21 22 22
44 42 41 43 44 43 38 35 33 36 34 33 33 33 30 31 31 34 32 32 33 35 34 31 27 32 32 28 33 30 30 23 23 23 25 25 24 24 25 25 24 23 23 22
44 42 41 42 42 42 37 41 39 36 32 33 32 31 30 30 33 32 35 33 31 32 32 32 31 33 33 32 31 30 27 25 23 20 25 23 21 23 24 23 25 24 23 24
43 42 42 43 43 42 38 41 38 35 31 34 31 30 32 31 32 31 33 35 34 34 38 37 37 35 36 34 35 33 27 25 23 20 22 17 21 26 25 25 25 25 23 23
43 43 44 43 43 42 40 41 40 36 31 34 34 32 31 33 33 33 33 34 34 34 33 31 33 33 31 32 36 34 32 26 23 20 20 21 22 22 22 20 18 23 23 26
42 43 43 42 42 42 39 40 41 40 36 30 35 32 33 32 31 32 34 35 35 36 34 29 26 29 29 29 31 33 31 29 22 23 19 17 22 25 23 22 16 25 27 30
42 43 43 41 42 42 38 36 41 38 36 40 36 33 33 35 32 32 32 34 38 40 31 31 29 29 32 28 27 30 30 29 22 23 22 25 27 24 23 16 17 26 30 31
42 42 40 40 41 42 38 36 41 38 38 39 43 42 36 35 35 32 34 32 35 39 33 33 32 29 30 30 30 31 29 29 28 26 25 24 26 25 19 22 27 28 30 32
41 41 41 41 41 41 39 35 41 42 38 40 43 42 42 40 40 35 37 33 36 35 36 35 32 30 31 29 27 31 29 30 29 30 29 31 30 25 27 29 29 30 30 35
41 40 41 41 41 41 39 38 41 39 37 37 38 37 45 44 43 44 34 39 43 41 41 36 35 31 32 26 27 30 31 32 28 29 31 32 35 36 37 36 34 36 37 36
38 39 40 41 41 40 39 38 42 38 40 33 33 44 43 49 48 46 45 40 48 46 44 37 35 32 35 30 30 29 31 32 31 31 35 37 36 36 35 35 36 36 34 33
40 40 40 40 41 41 40 41 41 44 39 34 37 41 43 46 51 50 49 46 45 43 40 37 34 37 35 35 34 31 34 31 28 24 30 29 31 35 35 35 35 34 33 32
40 40 40 41 41 41 39 36 41 42 44 37 33 41 41 46 51 50 49 47 45 42 38 37 40 43 37 32 29 31 34 36 35 30 37 36 36 34 34 34 33 33 33 33
41 41 41 41 42 40 36 35 40 45 45 38 33 35 40 48 49 48 48 47 45 44 41 40 40 40 37 33 29 33 38 38 37 36 36 34 34 33 33 32 32 32 31 31
41 42 42 42 42 40 38 42 45 45 41 39 32 34 39 46 43 43 45 43 43 43 41 39 39 39 36 33 35 37 36 36 36 35 35 35 33 33 32 32 31 31 31 31
42 41 41 43 39 36 35 45 46 44 39 32 34 34 32 42 40 41 41 41 39 41 40 39 39 36 35 35 36 37 36 36 34 33 33 33 32 31 31 31 31 30 30 30
43 42 39 33 37 45 45 43 39 39 40 42 35 39 38 40 36 37 38 38 38 37 39 40 36 36 36 35 36 37 35 34 33 32 31 31 30 30 30 30 30 30 30 30
40 37 36 41 46 40 38 33 33 35 34 37 38 39 39 41 35 35 36 35 34 34 36 34 33 34 35 37 37 36 35 34 35 35 33 32 31 30 29 29 29 30 30 29
40 42 43 42 38 35 31 31 32 32 32 35 36 38 40 39 40 35 35 33 33 31 36 35 32 33 35 36 36 36 36 35 34 34 32 32 31 30 29 29 28 28 27 25
43 38 35 34 33 30 29 27 29 30 32 34 36 35 36 37 36 34 32 31 31 34 33 30 29 34 36 36 35 35 35 34 34 33 32 31 30 30 29 28 28 26 24 23
33 32 27 27 25 27 27 28 30 31 32 33 35 34 35 35 34 32 31 32 32 27 26 26 30 33 33 33 33 32 32 32 31 30 30 29 28 27 28 27 25 23 22 20
31 30 25 26 30 31 31 32 32 32 34 34 35 34 35 32 31 31 32 29 25 25 24 27 31 32 32 31 31 30 30 30 29 28 26 26 26 25 22 20 20 21 20 18
31 29 26 29 28 26 28 29 30 33 33 34 32 31 30 30 30 26 23 24 19 23 27 30 32 31 31 30 30 30 30 29 28 28 27 26 24 22 19 18 18 18 17 16
28 26 27 26 27 24 25 27 28 32 34 30 29 22 21 25 22 18 20 18 22 24 29 31 31 30 30 30 29 29 29 28 28 27 26 24 23 20 17 15 15 15 16 17